Location: Kalberh�ni
(46.4610°N, 7.2453°E)
Time: 09:26:40
(UTC+00:00)

Cosmos 1455 - Pass Details

Date: 30 October 2021
Orbit: 496 x 520 km, 82.5° (Epoch: 27 November)

Event Time Altitude Azimuth Distance (km) Brightness Sun altitude
Rises 19:14:00 0° 237° (WSW) 2,613 6.4 -30.6°
Reaches altitude 10° 19:17:21 10° 270° (W) 1,727 5.7 -31.1°
Maximum altitude 19:18:52 12° 294° (WNW) 1,603 5.5 -31.4°
Drops below altitude 10° 19:20:23 10° 317° (NW) 1,727 5.5 -31.6°
Sets 19:23:45 0° 350° (N) 2,612 6.1 -32.2°
